GW1479 Weather Reports


Display with metric or nautical units.
time (UTC)temp
F
wind
direction
speed
MPH
gust
MPH
rain 1hr
in
rain 24hr
in
rain mn
in
humidity
%
barometer
mb
20260510033649 51 270 0.0 0.0 0.00 0.00 0.00 99 1014.2
20260510033031 51 270 0.0 0.0 0.00 0.00 0.00 99 1014.2
20260510031812 52 180 0.0 0.0 0.00 0.00 0.00 97 1013.8
20260510030611 52 68 0.0 0.0 0.00 0.00 0.00 98 1013.8
20260510030049 52 68 0.0 0.0 0.00 0.00 0.00 99 1013.8
20260510025434 53 68 0.0 0.0 0.00 0.00 0.00 99 1013.5
20260510024832 53 45 0.0 0.0 0.00 0.00 0.00 99 1013.5
20260510024246 53 270 0.0 0.0 0.00 0.00 0.00 99 1013.5
20260510023634 53 270 0.0 2.0 0.00 0.00 0.00 99 1013.5
20260510023034 53 270 0.0 0.0 0.00 0.00 0.00 99 1013.5
20260510022416 54 270 0.0 0.0 0.00 0.00 0.00 96 1013.5
20260510021826 54 270 0.0 0.0 0.00 0.00 0.00 96 1013.5
20260510021231 54 270 0.0 0.0 0.00 0.00 0.00 98 1013.5
20260510020622 54 270 0.0 0.0 0.00 0.00 0.00 98 1013.2
20260510020026 55 270 0.0 0.0 0.00 0.00 0.00 97 1013.2
20260510015442 55 270 0.0 0.0 0.00 0.00 0.00 95 1012.8
20260510014852 56 248 0.0 0.0 0.00 0.00 0.00 93 1012.8
20260510013018 57 270 0.0 0.0 0.00 0.00 0.00 91 1012.8
20260510012413 58 270 0.0 0.0 0.00 0.00 0.00 89 1012.8
20260510011251 59 270 0.0 0.0 0.00 0.00 0.00 88 1012.5
20260510010614 60 270 0.0 0.0 0.00 0.00 0.00 85 1012.5
20260510010036 60 270 0.0 0.0 0.00 0.00 0.00 86 1012.5
20260510005413 61 248 0.0 0.0 0.00 0.00 0.00 84 1012.5
20260510004825 62 270 0.0 0.0 0.00 0.00 0.00 83 1012.1
20260510003645 64 270 0.0 0.0 0.00 0.00 0.00 78 1012.1
20260510003033 64 180 0.0 0.0 0.00 0.00 0.00 78 1011.8
20260510001226 67 225 1.0 2.0 0.00 0.00 0.00 72 1011.5
20260510000613 67 158 2.0 3.0 0.00 0.00 0.00 71 1011.5
20260509235444 68 293 0.0 3.0 0.00 0.00 0.00 71 1011.5
20260509234822 70 225 2.0 3.0 0.00 0.00 0.00 70 1011.1
20260509234250 69 180 0.0 0.0 0.00 0.00 0.00 72 1011.1
20260509233643 70 113 0.0 4.0 0.00 0.00 0.00 68 1011.1
20260509233013 70 68 1.0 3.0 0.00 0.00 0.00 68 1011.1
20260509232435 71 180 3.0 3.0 0.00 0.00 0.00 65 1011.1
20260509231852 71 158 3.0 4.0 0.00 0.00 0.00 66 1011.5
20260509231230 71 180 3.0 5.0 0.00 0.00 0.00 65 1011.5
20260509230613 72 68 2.0 2.0 0.00 0.00 0.00 66 1011.5
20260509230052 72 270 0.0 3.0 0.00 0.00 0.00 63 1011.5
20260509225413 72 270 5.0 5.0 0.00 0.00 0.00 61 1011.5
20260509224809 73 270 7.0 7.0 0.00 0.00 0.00 61 1011.5
20260509224244 72 270 4.0 6.0 0.00 0.00 0.00 62 1011.5
20260509223611 71 270 2.0 4.0 0.00 0.00 0.00 62 1011.5
20260509223041 71 293 7.0 9.0 0.00 0.00 0.00 61 1011.5
20260509222426 73 270 9.0 10.0 0.00 0.00 0.00 59 1011.5
20260509221241 74 270 3.0 5.0 0.00 0.00 0.00 59 1011.5
20260509220647 73 270 2.0 6.0 0.00 0.00 0.00 64 1011.5
20260509220045 72 225 4.0 10.0 0.00 0.00 0.00 61 1011.8
20260509215432 73 270 7.0 9.0 0.00 0.00 0.00 63 1011.5
20260509214832 72 248 4.0 6.0 0.00 0.00 0.00 62 1011.5
20260509214223 72 270 9.0 9.0 0.00 0.00 0.00 62 1011.5
20260509213637 72 270 9.0 9.0 0.00 0.00 0.00 63 1011.5
20260509213010 72 270 5.0 8.0 0.00 0.00 0.00 63 1011.8
20260509211813 72 270 6.0 6.0 0.00 0.00 0.00 64 1011.8
20260509211250 70 180 5.0 6.0 0.00 0.00 0.00 65 1011.8
20260509210611 70 270 3.0 6.0 0.00 0.00 0.00 66 1011.5
20260509205444 69 270 3.0 7.0 0.00 0.00 0.00 68 1011.5
20260509204825 70 180 4.0 6.0 0.00 0.00 0.00 65 1011.5
20260509204228 71 270 8.0 11.0 0.00 0.00 0.00 62 1011.8
20260509203647 70 270 5.0 8.0 0.00 0.00 0.00 66 1011.8
20260509203012 70 225 2.0 4.0 0.00 0.00 0.00 65 1011.8
20260509201823 69 270 5.0 5.0 0.00 0.00 0.00 65 1011.8
20260509201236 70 225 4.0 9.0 0.00 0.00 0.00 66 1011.8
20260509200631 70 270 6.0 6.0 0.00 0.00 0.00 65 1011.8
20260509200017 69 270 9.0 9.0 0.00 0.00 0.00 65 1011.8
20260509195415 69 270 7.0 9.0 0.00 0.00 0.00 65 1011.8
20260509194841 69 270 10.0 10.0 0.00 0.00 0.00 65 1011.8
20260509194249 69 248 5.0 6.0 0.00 0.00 0.00 66 1012.1
20260509193009 69 270 5.0 7.0 0.00 0.00 0.00 65 1011.8
20260509192410 69 270 12.0 12.0 0.00 0.00 0.00 65 1011.8
20260509191840 69 248 5.0 6.0 0.00 0.00 0.00 66 1011.8
20260509191229 69 248 9.0 9.0 0.00 0.00 0.00 65 1011.8
20260509190020 68 270 5.0 6.0 0.00 0.00 0.00 66 1011.8
20260509185409 68 270 4.0 4.0 0.00 0.00 0.00 65 1011.8
20260509184824 68 270 5.0 5.0 0.00 0.00 0.00 66 1011.8
20260509184253 67 270 6.0 10.0 0.00 0.00 0.00 66 1011.8
20260509183027 67 270 4.0 7.0 0.00 0.00 0.00 66 1011.8
20260509181838 68 270 5.0 7.0 0.00 0.00 0.00 65 1011.8
20260509180628 67 270 5.0 8.0 0.00 0.00 0.00 67 1011.8
20260509175453 67 270 7.0 8.0 0.00 0.00 0.00 67 1012.1
20260509174808 67 248 6.0 8.0 0.00 0.00 0.00 66 1011.8
20260509174210 67 270 5.0 7.0 0.00 0.00 0.00 67 1011.8
20260509173620 66 270 3.0 6.0 0.00 0.00 0.00 69 1011.8
20260509173014 66 270 3.0 4.0 0.00 0.00 0.00 69 1011.8
20260509172411 65 270 4.0 7.0 0.00 0.00 0.00 69 1012.1
20260509171852 65 270 5.0 6.0 0.00 0.00 0.00 68 1012.1
20260509171238 65 270 5.0 7.0 0.00 0.00 0.00 68 1012.1
20260509170618 65 270 5.0 8.0 0.00 0.00 0.00 68 1012.1
20260509170029 66 270 7.0 7.0 0.00 0.00 0.00 69 1012.1
20260509165443 66 270 3.0 5.0 0.00 0.00 0.00 71 1012.1
20260509164828 66 45 4.0 5.0 0.00 0.00 0.00 69 1012.1
20260509164210 65 270 2.0 5.0 0.00 0.00 0.00 72 1012.1
20260509163638 65 293 2.0 3.0 0.00 0.00 0.00 71 1012.1
20260509163013 64 248 3.0 3.0 0.00 0.00 0.00 73 1011.8
20260509162437 64 293 3.0 4.0 0.00 0.00 0.00 72 1011.8
20260509161822 64 293 1.0 3.0 0.00 0.00 0.00 76 1012.1
20260509160649 63 68 2.0 3.0 0.00 0.00 0.00 77 1012.1
20260509160033 63 23 2.0 2.0 0.00 0.00 0.00 77 1012.1
20260509155420 63 90 0.0 0.0 0.00 0.00 0.00 76 1012.1
20260509154228 64 90 2.0 3.0 0.00 0.00 0.00 75 1012.1
20260509153032 64 90 3.0 5.0 0.00 0.00 0.00 77 1012.8
20260509152414 64 90 2.0 4.0 0.00 0.00 0.00 80 1012.8
20260509151828 62 90 3.0 4.0 0.00 0.00 0.00 80 1012.8
20260509151235 62 45 3.0 3.0 0.00 0.00 0.00 81 1012.8
20260509150627 61 68 3.0 3.0 0.00 0.00 0.00 81 1012.8
20260509150028 61 338 1.0 2.0 0.00 0.00 0.00 82 1012.8
20260509144832 60 45 2.0 3.0 0.00 0.00 0.00 82 1012.8
20260509144224 60 90 2.0 2.0 0.00 0.00 0.00 82 1012.8
20260509143636 61 23 2.0 2.0 0.00 0.00 0.00 82 1012.8
20260509143012 60 135 2.0 3.0 0.00 0.00 0.00 82 1012.5
20260509141828 60 45 2.0 3.0 0.00 0.00 0.00 85 1012.5
20260509141214 59 135 1.0 3.0 0.00 0.00 0.00 85 1012.5
20260509140624 59 135 2.0 5.0 0.00 0.00 0.00 85 1012.5
20260509140028 59 113 3.0 4.0 0.00 0.00 0.00 86 1012.5
20260509134837 58 45 0.0 2.0 0.00 0.00 0.00 94 1012.5
20260509134244 58 90 1.0 3.0 0.00 0.00 0.00 95 1012.8
20260509133650 58 113 0.0 0.0 0.00 0.00 0.00 97 1012.8
20260509132445 58 90 0.0 0.0 0.00 0.00 0.00 93 1013.5
20260509131831 57 293 0.0 0.0 0.00 0.00 0.00 97 1013.2
20260509131230 57 203 0.0 0.0 0.00 0.00 0.00 98 1013.2
20260509130652 56 90 0.0 0.0 0.00 0.00 0.00 99 1013.2
20260509130043 56 23 0.0 0.0 0.00 0.00 0.00 99 1013.2
20260509125447 55 45 0.0 0.0 0.00 0.00 0.00 99 1013.2
20260509124841 55 113 0.0 0.0 0.00 0.00 0.00 99 1013.2
20260509124212 56 90 0.0 0.0 0.00 0.00 0.00 99 1013.5
20260509123042 55 90 0.0 0.0 0.00 0.00 0.00 99 1013.5
20260509121230 55 90 0.0 0.0 0.00 0.00 0.00 99 1013.2
20260509120629 54 270 3.0 3.0 0.00 0.00 0.00 99 1013.2
20260509120027 55 158 0.0 0.0 0.00 0.00 0.00 99 1013.5
20260509114814 54 248 0.0 0.0 0.00 0.00 0.00 99 1013.5
20260509114227 54 248 0.0 0.0 0.00 0.00 0.00 99 1013.5
20260509113623 54 248 0.0 0.0 0.00 0.00 0.00 99 1013.2
20260509113044 54 248 0.0 0.0 0.00 0.00 0.00 99 1013.2
20260509112418 54 248 0.0 0.0 0.00 0.00 0.00 99 1013.2
20260509111819 54 270 0.0 0.0 0.00 0.00 0.00 99 1013.2
20260509111221 54 248 0.0 0.0 0.00 0.00 0.00 99 1013.2
20260509110014 53 180 0.0 0.0 0.00 0.00 0.00 99 1013.2
20260509105429 53 113 0.0 0.0 0.00 0.00 0.00 99 1012.8
20260509104808 53 113 0.0 0.0 0.00 0.00 0.00 99 1012.8
20260509104234 53 113 0.0 0.0 0.00 0.00 0.00 99 1012.8
20260509103638 53 113 0.0 0.0 0.00 0.00 0.00 99 1012.8
20260509103021 53 113 0.0 0.0 0.00 0.00 0.00 99 1012.8
20260509101840 53 90 0.0 0.0 0.00 0.00 0.00 99 1012.8
20260509100614 53 113 0.0 0.0 0.00 0.00 0.00 99 1013.2
20260509100011 53 135 0.0 0.0 0.00 0.00 0.00 99 1013.2
20260509095411 53 113 0.0 0.0 0.00 0.00 0.00 99 1013.2
20260509094820 53 113 0.0 0.0 0.00 0.00 0.00 99 1013.2
20260509094215 53 90 0.0 0.0 0.00 0.00 0.00 99 1013.2
20260509093617 53 113 0.0 0.0 0.00 0.00 0.00 99 1013.2
20260509093024 53 90 0.0 0.0 0.00 0.00 0.00 99 1013.2
20260509092416 54 158 0.0 0.0 0.00 0.00 0.00 98 1013.2
20260509091227 54 180 0.0 0.0 0.00 0.00 0.00 98 1013.2
20260509090613 53 248 0.0 0.0 0.00 0.00 0.00 99 1013.2
20260509090052 53 180 0.0 0.0 0.00 0.00 0.00 99 1013.2
20260509085421 54 248 0.0 0.0 0.00 0.00 0.00 99 1012.8
20260509084826 54 270 0.0 0.0 0.00 0.00 0.00 99 1013.5
20260509083649 53 270 2.0 3.0 0.00 0.00 0.00 99 1013.5
20260509083024 54 135 0.0 0.0 0.00 0.00 0.00 99 1013.5
20260509081820 53 68 3.0 5.0 0.00 0.00 0.00 99 1013.2
20260509081208 53 270 3.0 4.0 0.00 0.00 0.00 99 1013.2
20260509080638 53 270 3.0 3.0 0.00 0.00 0.00 99 1012.8
20260509080036 54 270 2.0 2.0 0.00 0.00 0.00 99 1012.8
20260509074848 53 90 0.0 0.0 0.00 0.00 0.00 99 1012.8
20260509074242 53 158 0.0 3.0 0.00 0.00 0.00 99 1012.8
20260509073609 54 248 0.0 0.0 0.00 0.00 0.00 98 1012.8
20260509073025 54 270 0.0 0.0 0.00 0.00 0.00 98 1012.5
20260509072411 53 293 0.0 2.0 0.00 0.00 0.00 98 1012.5
20260509071817 54 158 0.0 0.0 0.00 0.00 0.00 97 1012.5
20260509071210 54 180 0.0 0.0 0.00 0.00 0.00 97 1012.5
20260509070615 54 68 0.0 0.0 0.00 0.00 0.00 97 1012.8
20260509070051 54 90 0.0 2.0 0.00 0.00 0.00 97 1012.8
20260509065434 54 68 0.0 0.0 0.00 0.00 0.00 96 1012.8
20260509064828 54 180 0.0 0.0 0.00 0.00 0.00 94 1012.8
20260509063049 54 225 2.0 3.0 0.00 0.00 0.00 95 1012.1
20260509062443 54 225 2.0 2.0 0.00 0.00 0.00 94 1012.1
20260509061850 54 248 2.0 3.0 0.00 0.00 0.00 94 1012.5
20260509061228 54 248 0.0 0.0 0.00 0.00 0.00 93 1012.5
20260509060646 54 248 0.0 0.0 0.00 0.00 0.00 93 1012.5
20260509060044 54 270 0.0 0.0 0.00 0.00 0.00 93 1012.5
20260509055421 54 270 0.0 0.0 0.00 0.00 0.00 91 1012.5
20260509054843 55 225 0.0 0.0 0.00 0.00 0.00 90 1012.5
20260509054212 54 270 0.0 0.0 0.00 0.00 0.00 91 1012.5
20260509053028 54 248 3.0 3.0 0.00 0.00 0.00 93 1012.8
20260509052412 55 248 0.0 0.0 0.00 0.00 0.00 89 1012.8
20260509051851 54 90 0.0 0.0 0.00 0.00 0.00 90 1012.8
20260509050028 55 90 0.0 0.0 0.00 0.00 0.00 89 1012.8
20260509045426 55 225 0.0 1.0 0.00 0.00 0.00 89 1012.8
20260509044232 55 90 0.0 0.0 0.00 0.00 0.00 87 1013.2
20260509043611 55 90 0.0 0.0 0.00 0.00 0.00 87 1013.2
20260509043038 55 158 0.0 2.0 0.00 0.00 0.00 88 1013.2
20260509042425 55 270 0.0 0.0 0.00 0.00 0.00 87 1013.2
20260509041838 55 45 0.0 0.0 0.00 0.00 0.00 87 1013.2
20260509041210 55 270 2.0 2.0 0.00 0.00 0.00 88 1013.2
20260509040628 55 203 0.0 0.0 0.00 0.00 0.00 89 1013.2
20260509035414 55 270 0.0 0.0 0.00 0.00 0.00 87 1013.2
20260509034844 55 270 0.0 0.0 0.00 0.00 0.00 87 1013.2
20260509034237 56 270 0.0 0.0 0.00 0.00 0.00 86 1013.2